Regional Weather Roundup
Issued by NWS

Home | Current Version | Previous Version | Text Only | Print | Product List | Glossary Off
Versions: 1 2 3 4 5 6 7 8 9 10 11 12 13 14 15 16 17 18 19 20 21 22 23 24 25 26 27 28 29 30 31 32 33 34 35 36 37 38 39 40 41 42 43 44 45 46 47 48 49 50

000
ASUS43 KTOP 031508
RWRKS

WEATHER ROUNDUP FOR KANSAS
NATIONAL WEATHER SERVICE GOODLAND KS
1000 AM CDT SUN MAY 03 2015

NOTE:  "FAIR" INDICATES FEW OR NO CLOUDS BELOW 12,000 FEET WITH NO
SIGNIFICANT WEATHER AND/OR OBSTRUCTIONS TO VISIBILITY.

KSZ001>006-013>018-027>032-041>047-031600-
NORTHWEST KANSAS

CITY           SKY/WX    TMP DP  RH WIND       PRES   REMARKS
GOODLAND       MOSUNNY   69  48  47 W6        29.88R
HAYS           MOSUNNY   77  52  41 SW5       29.81F
HILL CITY      SUNNY     75  51  43 W6        29.82S
RUSSELL        MOSUNNY   74  52  46 SW6       29.79S
$$

KSZ061>065-074>080-084>089-031600-
SOUTHWEST KANSAS

CITY           SKY/WX    TMP DP  RH WIND       PRES   REMARKS
DODGE CITY     SUNNY     71  47  42 VRB3      29.85S
ELKHART          N/A     64  47  54 W9          N/A
GARDEN CITY    MOSUNNY   71  47  42 NW7       29.85S
GREAT BEND     MOSUNNY   72  54  53 SW10      29.81F
LIBERAL        MOSUNNY   70  46  43 W6        29.89S
PRATT          SUNNY     72  52  49 SW12      29.85R
$$

KSZ066>073-081>083-090>101-031600-
SOUTHEAST KANSAS

CITY           SKY/WX    TMP DP  RH WIND       PRES   REMARKS
CHANUTE        MOSUNNY   72  56  57 S17       29.92S
COFFEYVILLE    MOSUNNY   71  57  61 S18G24    29.94R
HUTCHINSON     SUNNY     72  56  57 S16       29.83S
MEDICINE LODGE   N/A     69  55  60 S14       29.85S
NEWTON         MOSUNNY   70  52  52 S18       29.86S
PARSONS        MOSUNNY   72  57  59 S15G24    29.94S
WICHITA INTL   PTSUNNY   70  55  59 S21       29.86R
WICHITA JABRA  PTSUNNY   68  55  63 S18G30    29.85S
WICHITA MCCONL PTSUNNY   68  56  64 S17G25    29.86S
WINFIELD       CLOUDY    67  55  65 S18G25    29.89F
$$

KSZ007>012-019>026-033>040-048>060-102>105-031600-
NORTHEAST KANSAS

CITY           SKY/WX    TMP DP  RH WIND       PRES   REMARKS
CONCORDIA      MOSUNNY   73  54  51 S10       29.77F
EMPORIA        MOSUNNY   70  55  59 S21G30    29.85S
LAWRENCE       PTSUNNY   69  57  65 S14G20    29.86S
MANHATTAN      MOSUNNY   74  59  59 SW17      29.80S
MARYSVILLE     SUNNY     72  57  60 SW13G18   29.79S
OLATHE IND     PTSUNNY   68  55  63 S17       29.88F
OLATHE EXE     PTSUNNY   69  56  62 S15G22    29.87F
SALINA         MOSUNNY   71  56  58 SW16      29.81R
TOPEKA BILLARD PTSUNNY   70  57  63 S22       29.84F
TOPEKA FORBES  PTSUNNY   70  57  63 S16       29.84F
$$


USA.gov is the U.S. government's official web portal to all federal, state and local government web resources and services.